Date,TemperatureHighF,TemperatureAvgF,TemperatureLowF,DewpointHighF,DewpointAvgF,DewpointLowF,HumidityHigh,HumidityAvg,HumidityLow,PressureMaxIn,PressureMinIn,WindSpeedMaxMPH,WindSpeedAvgMPH,GustSpeedMaxMPH,PrecipitationSumIn
2013-3-1,51.6,38.9,27.5,22.7,16.8,9.1,59,42,26,30.41,30.32,14,4,18,0.00
2013-3-2,63.0,46.8,30.4,27.3,22.5,17.9,66,42,20,30.40,30.18,16,4,17,0.00
2013-3-3,64.6,50.9,36.7,27.8,22.6,16.9,61,35,18,30.18,29.85,17,4,20,0.00
2013-3-4,50.4,32.1,20.5,29.2,22.9,12.9,95,71,35,30.32,29.88,17,5,20,0.00
2013-3-5,42.4,27.8,12.6,19.9,12.9,5.2,73,55,32,30.34,30.24,11,3,11,0.02
2013-3-6,61.5,38.3,18.7,26.7,20.0,13.0,85,54,19,30.25,29.99,8,2,11,0.00
2013-3-7,66.6,47.1,28.4,28.3,22.9,19.9,72,43,17,30.11,30.01,17,4,17,0.00
2013-3-8,50.2,39.5,31.6,34.4,29.7,23.4,86,69,45,30.11,29.86,8,2,10,0.00
2013-3-9,35.4,31.6,24.6,33.4,28.7,15.4,99,90,60,30.21,29.83,5,0,7,0.07
2013-3-10,45.3,32.0,16.0,20.9,14.5,8.6,78,52,25,30.25,30.16,11,2,11,0.13
2013-3-11,55.9,41.1,30.2,32.4,21.0,10.5,98,51,21,30.26,30.05,21,6,30,0.01
2013-3-12,40.1,31.4,24.6,31.2,27.2,23.4,99,85,63,30.40,30.26,8,2,30,0.19
2013-3-13,66.9,48.5,29.8,36.4,26.2,16.8,91,50,17,30.36,30.28,13,4,17,0.00
2013-3-14,73.9,55.7,37.2,29.6,23.0,17.7,67,32,13,30.42,30.27,16,4,19,0.00
2013-3-15,75.2,62.2,46.0,26.9,22.3,17.9,46,23,13,30.28,30.04,14,5,22,0.00
2013-3-16,54.7,48.0,41.5,36.3,32.1,20.2,74,56,26,30.17,29.99,11,4,12,0.00
2013-3-17,60.1,45.7,32.7,31.6,23.5,11.0,77,45,21,30.00,29.74,31,8,31,0.00
2013-3-18,50.4,40.6,28.2,19.1,11.3,5.0,55,31,21,30.09,30.00,23,6,30,0.00
2013-3-19,55.2,42.5,30.6,18.5,11.6,6.0,53,30,20,30.44,30.08,24,8,26,0.00
2013-3-20,54.7,39.7,22.6,23.6,16.7,12.3,70,43,22,30.44,29.91,20,3,23,0.00
2013-3-21,59.9,45.4,34.0,33.0,20.1,7.9,60,38,21,29.98,29.73,22,6,34,0.00
2013-3-22,49.1,35.5,27.0,29.9,21.0,7.6,99,59,29,30.05,29.81,20,5,21,0.00
2013-3-23,27.1,20.1,13.5,26.4,17.1,7.8,98,88,73,30.28,30.03,15,5,17,0.00
2013-3-24,27.0,18.4,3.2,17.5,9.0,-2.8,85,67,46,30.30,30.18,12,2,12,0.11
2013-3-25,35.6,24.8,12.2,16.6,8.9,1.9,87,54,25,30.34,30.28,9,3,10,0.01
2013-3-26,55.0,35.4,17.6,31.6,17.8,7.7,76,52,21,30.28,30.05,8,3,11,0.00
2013-3-27,57.0,42.7,28.6,38.0,29.9,22.6,85,63,39,30.22,30.14,11,3,11,0.00
2013-3-28,66.2,47.8,32.2,38.1,30.8,22.8,94,59,19,30.26,30.17,9,2,16,0.00
2013-3-29,67.8,52.0,36.7,35.3,30.1,23.2,78,47,20,30.27,30.19,19,4,25,0.00
2013-3-30,69.3,52.3,39.0,40.4,30.3,20.2,82,49,16,30.35,30.15,19,6,24,0.00
2013-3-31,72.5,54.0,35.2,38.3,26.0,18.2,88,43,13,30.33,30.08,15,4,20,0.00